Wind_Speed
4 5 5 5 5 5 4 3 3 4 4 4 5 5 4 3 3 3 3 3 4 4 4 5 5 5 4 4 4 4 4 5 4 4 5 5 5 5 5 6 6 7 7 7 7 8 8 8 9
5 5 6 6 5 5 4 4 4 4 3 3 4 5 5 4 4 3 4 4 5 6 6 6 6 6 6 5 5 5 5 5 5 5 6 6 6 7 7 7 8 8 8 9 9 9 10 10 10
6 6 6 6 6 5 5 5 5 5 5 5 5 5 5 6 5 5 5 6 6 7 7 7 8 7 7 7 6 6 6 6 5 6 6 7 8 8 8 9 9 9 10 10 10 10 10 10 11
6 6 7 6 5 6 6 6 7 6 6 6 6 6 6 7 7 7 7 7 7 8 8 8 8 8 8 8 7 8 7 7 7 7 7 8 8 9 9 9 10 10 10 11 11 11 11 11 11
6 6 7 6 5 5 6 7 7 7 7 7 7 7 7 7 7 7 7 8 8 9 9 9 9 9 9 9 9 8 8 9 9 8 9 9 9 9 9 10 10 10 11 11 11 11 12 12 12
7 7 6 6 6 6 6 6 7 7 7 7 7 7 7 8 8 8 8 9 9 10 9 10 10 9 9 10 9 9 9 9 8 9 9 9 9 9 9 10 11 10 10 10 11 12 12 13 14
8 7 7 6 6 7 6 7 7 7 7 7 8 8 8 9 8 8 9 9 10 10 10 10 10 10 9 9 9 9 9 9 9 9 9 9 9 9 10 10 11 11 11 11 11 12 12 13 14
8 8 7 7 7 7 7 7 7 7 7 8 8 8 8 8 8 8 8 8 9 10 10 10 10 9 9 9 9 9 10 10 10 10 9 9 9 9 10 11 11 12 12 12 12 13 13 13 14
8 8 8 7 8 8 9 9 8 8 8 9 9 9 9 9 9 9 9 8 8 9 9 10 10 10 10 10 9 10 10 10 11 11 10 10 10 10 10 11 12 12 13 12 12 13 13 14 15
9 9 9 9 9 10 10 10 9 9 9 9 10 9 9 9 9 9 9 9 9 9 9 10 10 10 10 10 10 10 11 11 11 11 11 11 12 12 12 12 12 12 13 12 12 12 13 14 15
9 10 9 9 10 10 10 10 10 10 9 9 9 10 9 9 9 9 9 9 9 9 9 9 10 10 10 10 10 10 11 11 12 12 12 12 12 13 12 12 12 12 12 12 12 13 14 14 15
9 10 10 10 10 10 10 11 11 11 10 10 10 10 10 9 9 9 9 9 9 8 9 9 10 9 10 10 11 11 12 12 13 13 12 13 13 12 13 13 13 14 14 13 13 13 13 14 15
9 10 10 9 10 10 10 10 10 10 11 12 11 11 11 11 10 10 10 10 9 9 9 9 9 9 10 10 11 12 12 13 13 13 13 13 13 14 14 14 14 14 14 14 14 14 14 14 14
8 8 8 8 9 9 10 10 10 10 10 11 10 10 11 11 11 11 10 10 10 9 9 9 10 10 10 11 11 11 12 13 13 13 14 14 14 13 14 14 14 15 14 14 14 14 14 13 14
8 8 7 7 8 9 9 9 9 9 9 10 10 10 10 10 10 10 10 10 10 10 10 11 11 11 11 11 11 11 11 12 13 13 14 14 15 14 14 14 14 14 14 15 15 15 14 13 13
8 8 8 7 8 9 9 9 8 8 9 9 10 10 10 10 10 10 9 10 9 10 11 11 11 11 11 11 11 11 11 12 13 14 14 14 15 15 15 14 14 15 15 16 16 15 15 15 14
8 8 8 7 8 8 8 7 8 8 8 9 9 10 10 10 10 9 9 9 9 10 10 10 11 11 11 11 12 12 12 13 13 14 14 14 15 15 15 15 15 16 16 16 17 17 16 16 16
8 8 8 8 7 8 8 7 7 7 8 8 8 9 10 10 10 9 9 9 9 10 10 10 11 11 11 11 12 12 12 13 14 14 14 15 15 15 16 16 16 16 16 16 17 17 17 17 17
8 8 8 7 7 8 8 8 7 7 8 8 8 8 9 9 10 10 10 10 10 10 10 11 11 11 12 12 13 13 13 14 14 15 15 15 15 16 16 16 16 16 16 16 17 17 17 17 17
8 8 8 7 7 8 8 8 8 8 8 8 8 8 9 10 10 10 10 10 10 10 11 11 11 12 13 13 14 15 15 15 15 15 15 16 16 16 16 16 16 16 16 17 17 18 18 17 17
8 7 8 8 8 8 8 8 8 9 9 9 9 10 9 10 10 11 10 10 11 11 12 12 12 13 14 14 15 15 16 15 16 16 16 16 16 16 17 18 17 17 17 17 17 17 17 17 17
7 7 8 8 9 9 9 8 8 9 9 10 10 10 10 11 11 11 11 11 12 13 13 13 14 14 15 16 16 16 17 16 16 17 17 17 17 17 18 18 18 17 17 17 16 17 17 17 17
8 8 8 8 9 10 10 10 9 9 10 10 11 10 11 11 12 12 13 12 13 13 14 14 15 15 16 17 17 17 18 18 18 18 18 17 17 18 18 17 18 18 17 16 16 17 17 17 17
8 8 8 8 9 10 9 10 9 9 10 11 12 12 12 12 13 13 14 14 15 15 15 16 16 16 17 17 18 18 18 19 19 19 19 19 19 19 19 18 18 17 17 17 17 17 17 17 17
8 8 8 8 9 9 9 10 9 9 10 12 13 13 13 14 14 15 15 16 16 16 17 17 17 17 18 18 19 19 19 19 19 20 20 20 20 20 20 20 19 18 17 17 17 17 17 17 17
9 9 9 9 9 9 10 10 10 10 11 12 13 14 14 14 15 16 17 17 17 17 17 18 18 18 19 19 19 19 19 19 19 19 19 19 19 20 20 20 20 19 18 18 19 19 19 19 19
9 9 10 10 10 10 10 11 11 11 12 13 13 14 14 15 16 17 17 18 18 18 18 18 19 19 19 19 19 19 19 19 19 19 20 19 20 20 20 21 21 20 20 20 20 20 21 21 21
10 10 11 11 11 12 11 11 12 13 13 13 14 15 16 16 17 17 18 19 20 20 19 19 19 20 19 19 20 20 20 20 20 20 20 20 20 21 21 21 21 21 22 22 21 21 21 22 22
11 11 12 13 13 13 13 12 13 14 15 16 16 17 17 18 18 18 19 20 21 21 21 21 21 21 20 20 20 21 21 21 21 21 21 21 22 22 21 21 22 22 23 23 23 23 23 23 22
12 12 12 14 14 15 15 14 14 15 16 18 18 19 19 18 19 19 20 20 21 21 22 22 23 22 22 22 22 22 22 22 22 22 22 23 23 23 23 23 23 24 24 24 24 24 24 24 23
Wind_Direction
205 213 218 219 227 225 223 218 221 222 223 227 222 222 228 235 237 238 241 235 238 240 247 244 243 249 256 266 280 286 291 288 285 279 283 287 289 285 281 286 291 286 282 283 284 285 285 282 278
210 218 221 223 230 231 232 234 224 221 231 234 233 231 235 235 242 247 246 241 247 249 251 251 248 252 258 266 273 282 288 284 286 283 278 280 285 284 284 289 291 289 282 281 282 281 280 278 276
223 222 223 228 236 239 239 239 228 222 234 241 241 238 241 242 252 256 257 252 256 253 250 253 251 255 260 265 272 277 283 284 284 283 278 279 282 281 283 285 287 287 283 284 282 280 279 277 276
228 227 230 236 244 247 247 241 233 229 240 247 244 245 249 253 261 265 265 261 262 259 255 256 255 255 259 265 273 275 275 279 282 284 281 281 279 280 283 285 283 283 284 285 282 283 281 276 273
241 242 238 243 251 249 248 248 249 242 251 252 247 248 252 259 262 264 264 264 263 262 261 258 256 254 256 262 267 269 271 274 278 281 281 279 277 278 281 284 284 284 285 287 282 283 282 278 274
248 247 249 247 251 249 250 252 250 248 250 254 252 253 258 261 262 261 261 263 264 262 258 253 254 255 260 262 265 266 265 267 272 276 279 279 278 279 280 285 289 288 290 291 288 284 279 278 278
250 252 252 251 252 252 252 252 253 256 255 259 260 262 265 264 264 265 265 266 264 262 258 255 254 257 262 264 264 262 261 263 268 273 275 273 273 280 284 283 284 287 290 291 289 286 285 280 278
257 258 257 258 258 256 253 256 258 258 262 262 260 264 266 264 263 264 265 264 262 257 256 258 254 255 258 262 262 261 262 262 266 271 273 273 274 277 280 283 284 288 291 291 290 288 288 284 281
260 262 263 264 262 261 261 262 258 258 262 262 262 262 262 264 262 261 264 265 263 259 255 255 253 257 260 264 264 263 263 265 268 272 271 272 275 277 280 283 285 288 289 289 290 290 290 289 287
260 260 261 262 262 262 262 261 261 260 261 263 262 261 261 258 256 257 260 263 262 263 261 257 259 260 261 262 263 264 265 266 268 270 272 274 276 278 280 284 285 286 289 290 292 293 291 292 290
261 261 262 264 265 264 263 263 263 261 260 262 263 259 255 252 254 258 261 261 260 259 261 264 265 264 263 264 266 267 266 267 268 269 273 276 279 280 283 284 286 287 290 290 290 291 291 292 290
266 267 266 266 264 263 264 265 263 261 261 261 261 257 252 251 253 255 258 259 259 259 262 262 261 265 267 266 267 268 268 266 268 268 271 274 276 278 281 282 284 286 288 289 289 289 291 292 292
269 269 267 265 265 263 265 267 267 266 263 260 258 257 253 251 252 255 256 257 258 261 262 261 262 263 265 268 269 269 267 268 272 271 271 274 277 278 280 282 281 283 286 286 287 287 289 289 291
272 271 270 269 268 267 269 269 267 265 261 259 259 258 254 251 252 254 255 257 259 260 263 264 264 267 271 273 273 271 269 269 271 272 271 274 277 279 280 280 280 280 283 286 286 287 289 290 289
276 277 274 272 271 271 272 269 266 265 261 258 256 256 254 253 251 251 254 256 260 264 267 268 267 268 271 275 273 271 272 272 273 275 275 275 277 281 283 283 281 281 283 286 285 286 285 287 288
277 276 278 278 277 273 275 270 269 268 263 259 255 254 253 251 248 248 252 255 260 267 270 271 271 272 275 275 273 273 275 275 275 276 276 276 278 282 285 287 287 286 286 286 285 285 285 286 287
278 278 280 279 281 276 276 271 271 266 262 259 255 251 248 249 247 248 251 253 261 268 270 272 274 274 276 276 274 275 275 275 276 278 279 280 283 285 286 287 289 288 288 287 286 287 285 285 286
280 282 281 280 282 279 276 278 276 271 266 261 255 248 249 252 249 248 252 255 263 271 273 275 277 277 277 279 279 277 278 278 278 280 281 282 286 287 286 287 288 289 289 288 288 287 285 284 284
277 277 275 277 279 276 276 279 274 271 271 264 255 248 250 255 255 254 256 262 265 270 273 276 276 277 279 279 279 279 280 280 280 280 280 280 282 284 287 286 287 289 290 290 288 288 286 283 283
278 278 278 276 275 274 275 277 275 271 272 268 263 253 253 257 260 260 262 265 267 269 271 273 276 278 279 279 280 281 281 280 281 281 278 277 279 282 284 287 288 289 291 290 288 287 285 285 283
277 279 282 281 277 272 271 273 275 273 272 270 270 263 257 259 265 266 264 267 270 272 274 275 278 280 279 280 282 282 283 282 281 279 279 277 278 280 281 284 287 288 289 289 288 286 285 286 285
275 277 282 286 283 276 272 267 269 270 269 270 273 269 261 263 265 267 267 269 273 275 277 279 281 282 281 282 283 284 283 283 282 279 279 279 277 280 282 282 287 288 288 287 289 287 286 285 284
279 280 284 287 285 281 276 268 263 266 267 271 274 271 264 264 263 263 264 267 274 277 279 281 283 284 284 285 285 285 283 282 282 282 280 280 278 279 280 283 285 287 287 286 287 288 286 285 285
280 277 283 288 287 282 280 273 269 267 271 274 275 274 270 266 263 262 263 268 275 278 283 284 286 286 287 287 286 285 284 283 282 280 278 278 277 278 280 281 283 284 285 285 286 287 286 285 285
277 280 284 290 289 284 283 281 282 279 279 279 275 277 273 271 270 268 269 271 276 279 282 288 285 285 285 285 285 285 283 283 282 279 277 279 278 278 278 279 279 281 282 282 283 284 284 284 284
275 280 289 291 287 283 283 285 288 287 286 284 280 279 275 274 274 274 274 274 275 278 281 284 285 284 283 284 284 284 284 283 283 281 279 279 278 279 280 278 276 276 278 279 281 281 281 282 282
278 281 287 290 288 286 283 285 285 285 286 288 285 279 276 276 278 277 276 276 277 278 280 283 285 286 286 285 285 285 283 283 283 282 282 281 280 279 279 278 276 275 277 278 278 278 279 280 280
277 283 285 286 287 287 286 287 283 281 284 287 287 286 284 280 281 279 278 279 280 281 282 284 285 287 287 287 286 285 284 283 282 281 281 282 281 280 279 278 276 277 278 277 277 277 279 281 281
275 278 283 283 282 284 286 288 290 287 286 286 286 287 287 283 281 281 281 283 283 283 283 284 285 285 286 287 286 285 284 282 280 279 280 280 280 279 279 278 277 277 277 278 276 276 277 279 280
277 278 284 283 285 285 287 288 289 290 290 290 288 289 288 284 283 282 284 285 286 286 285 284 284 284 284 285 286 284 284 282 280 279 279 280 280 279 278 278 278 278 278 278 277 277 277 277 278
Height
5850 5851 5853 5855 5856 5856 5856 5856 5856 5856 5857 5858 5858 5859 5860 5861 5862 5865 5864 5863 5863 5863 5864 5864 5864 5865 5865 5865 5865 5865 5865 5865 5865 5865 5866 5866 5866 5867 5867 5867 5867 5867 5867 5867 5867 5868 5868 5868 5867
5850 5852 5854 5855 5855 5855 5856 5856 5856 5857 5857 5857 5858 5859 5859 5860 5861 5861 5861 5862 5862 5862 5863 5863 5863 5864 5864 5864 5864 5864 5864 5864 5864 5864 5865 5865 5865 5865 5866 5866 5866 5866 5866 5866 5866 5866 5866 5866 5865
5851 5852 5854 5854 5854 5855 5856 5855 5856 5856 5857 5857 5858 5858 5859 5859 5860 5860 5860 5861 5861 5861 5861 5861 5862 5862 5862 5863 5863 5863 5863 5863 5863 5863 5863 5863 5864 5864 5864 5864 5864 5864 5864 5864 5864 5864 5864 5863 5863
5851 5852 5853 5853 5853 5854 5854 5855 5855 5856 5856 5857 5857 5858 5858 5858 5859 5859 5859 5859 5859 5860 5860 5860 5860 5860 5861 5861 5861 5861 5861 5862 5862 5862 5862 5862 5862 5862 5862 5862 5862 5862 5862 5862 5862 5861 5861 5861 5861
5850 5851 5852 5852 5853 5853 5853 5854 5854 5855 5855 5856 5856 5856 5857 5857 5857 5857 5857 5857 5857 5858 5858 5858 5858 5859 5859 5859 5860 5860 5860 5860 5860 5860 5860 5860 5860 5860 5860 5860 5860 5859 5859 5859 5859 5859 5859 5859 5858
5850 5851 5851 5852 5852 5853 5853 5853 5853 5854 5854 5854 5855 5855 5856 5856 5856 5856 5856 5856 5856 5855 5855 5856 5856 5857 5857 5858 5858 5858 5858 5858 5858 5858 5858 5858 5858 5858 5858 5858 5857 5857 5857 5857 5857 5856 5856 5856 5855
5850 5850 5850 5851 5851 5851 5852 5852 5852 5852 5853 5853 5854 5854 5854 5854 5854 5854 5854 5854 5854 5854 5854 5854 5854 5855 5856 5856 5856 5856 5856 5856 5856 5856 5856 5856 5856 5856 5856 5856 5855 5855 5855 5855 5854 5854 5853 5853 5852
5848 5849 5849 5849 5850 5850 5851 5850 5851 5851 5851 5852 5852 5852 5852 5853 5852 5853 5853 5852 5852 5852 5852 5853 5853 5853 5854 5854 5854 5854 5854 5854 5854 5854 5854 5854 5854 5854 5854 5854 5853 5853 5853 5852 5852 5851 5851 5850 5849
5846 5848 5847 5848 5848 5849 5849 5849 5849 5849 5850 5850 5850 5850 5851 5851 5851 5851 5851 5851 5851 5851 5851 5851 5851 5851 5851 5852 5852 5852 5852 5852 5852 5852 5852 5852 5852 5852 5852 5851 5851 5851 5850 5850 5849 5848 5848 5847 5846
5845 5845 5846 5846 5847 5847 5847 5847 5847 5847 5848 5848 5848 5848 5848 5848 5848 5849 5849 5849 5849 5849 5849 5849 5849 5849 5849 5850 5850 5850 5850 5850 5850 5850 5850 5850 5850 5850 5849 5849 5849 5848 5848 5847 5847 5846 5845 5844 5843
5843 5843 5844 5844 5844 5844 5844 5844 5845 5845 5845 5846 5846 5846 5846 5846 5846 5847 5847 5847 5847 5847 5847 5847 5847 5847 5847 5847 5847 5848 5847 5847 5847 5847 5848 5847 5847 5847 5847 5846 5846 5846 5845 5845 5844 5843 5842 5841 5840
5841 5841 5842 5842 5842 5842 5842 5842 5842 5842 5843 5843 5843 5843 5843 5844 5844 5844 5844 5845 5845 5845 5845 5845 5845 5845 5845 5845 5845 5845 5845 5844 5845 5845 5845 5845 5845 5844 5844 5844 5844 5843 5842 5842 5841 5840 5839 5838 5836
5839 5839 5839 5839 5839 5839 5839 5839 5839 5840 5840 5840 5840 5840 5841 5841 5842 5842 5842 5842 5842 5843 5843 5843 5843 5843 5842 5842 5842 5842 5842 5842 5842 5842 5842 5842 5841 5841 5841 5841 5841 5840 5839 5839 5838 5837 5836 5835 5833
5837 5837 5837 5837 5837 5836 5836 5836 5837 5837 5837 5837 5837 5838 5838 5838 5839 5840 5840 5840 5840 5840 5841 5841 5840 5840 5840 5840 5839 5839 5839 5839 5839 5839 5839 5838 5838 5838 5838 5838 5837 5837 5836 5835 5835 5834 5833 5832 5831
5835 5835 5835 5835 5834 5834 5834 5834 5834 5834 5834 5835 5835 5835 5835 5836 5836 5837 5837 5838 5838 5838 5838 5838 5838 5838 5837 5837 5837 5836 5836 5836 5836 5835 5835 5835 5835 5835 5835 5834 5834 5833 5833 5832 5831 5831 5830 5829 5827
5833 5833 5833 5833 5832 5831 5833 5832 5832 5831 5832 5832 5832 5833 5833 5834 5834 5834 5835 5835 5835 5835 5835 5835 5835 5835 5834 5834 5834 5833 5833 5833 5833 5832 5832 5832 5831 5831 5831 5830 5830 5829 5829 5828 5828 5827 5826 5825 5824
5830 5831 5831 5831 5830 5830 5830 5829 5829 5829 5829 5829 5830 5830 5831 5831 5831 5832 5832 5832 5833 5833 5833 5833 5832 5832 5832 5831 5831 5830 5830 5830 5829 5829 5829 5828 5828 5827 5827 5827 5826 5826 5825 5825 5824 5823 5822 5821 5820
5829 5829 5829 5829 5828 5827 5827 5827 5827 5827 5827 5827 5828 5828 5828 5828 5829 5829 5830 5830 5830 5830 5830 5830 5829 5829 5829 5828 5828 5827 5827 5827 5826 5826 5825 5825 5824 5824 5824 5823 5822 5822 5821 5821 5820 5819 5818 5817 5816
5826 5827 5827 5826 5826 5826 5825 5825 5826 5825 5825 5825 5825 5826 5826 5826 5826 5827 5827 5827 5828 5827 5827 5827 5826 5826 5825 5825 5824 5824 5823 5823 5823 5822 5822 5821 5821 5820 5820 5819 5819 5818 5817 5817 5816 5815 5814 5813 5812
5824 5824 5825 5825 5824 5824 5823 5823 5823 5823 5823 5824 5824 5824 5824 5824 5824 5824 5824 5825 5825 5825 5824 5824 5823 5823 5822 5821 5821 5820 5820 5819 5819 5818 5818 5817 5817 5816 5816 5815 5815 5814 5813 5812 5812 5810 5809 5808 5807
5822 5822 5822 5822 5822 5822 5822 5822 5821 5821 5821 5821 5821 5822 5822 5822 5822 5822 5822 5822 5822 5822 5821 5821 5820 5819 5819 5818 5817 5816 5816 5815 5815 5814 5814 5813 5812 5812 5811 5811 5810 5809 5809 5808 5807 5806 5805 5804 5803
5820 5820 5820 5820 5820 5820 5820 5820 5820 5819 5819 5819 5819 5819 5819 5819 5819 5819 5819 5819 5819 5818 5818 5817 5817 5816 5815 5814 5813 5812 5812 5811 5810 5809 5809 5808 5807 5807 5807 5806 5806 5805 5804 5803 5803 5802 5801 5800 5798
5818 5818 5818 5818 5817 5817 5817 5817 5819 5817 5817 5817 5817 5816 5816 5816 5816 5816 5816 5816 5815 5815 5814 5813 5812 5811 5810 5809 5808 5808 5807 5806 5806 5805 5804 5803 5803 5802 5802 5801 5801 5800 5799 5799 5798 5797 5796 5795 5794
5816 5816 5816 5815 5815 5815 5815 5815 5816 5815 5815 5814 5814 5814 5814 5813 5813 5813 5812 5812 5811 5811 5810 5809 5808 5807 5806 5805 5804 5803 5802 5801 5801 5800 5800 5799 5798 5798 5797 5796 5796 5795 5795 5794 5793 5792 5792 5791 5790
5814 5814 5814 5813 5812 5813 5813 5812 5813 5812 5812 5812 5811 5811 5810 5810 5810 5809 5809 5808 5808 5807 5806 5805 5804 5803 5801 5800 5799 5798 5797 5796 5795 5795 5794 5794 5793 5793 5792 5792 5791 5791 5790 5789 5789 5788 5787 5786 5785
5811 5812 5813 5812 5811 5811 5810 5809 5810 5810 5809 5809 5808 5808 5807 5807 5807 5806 5805 5804 5803 5802 5801 5800 5799 5798 5797 5795 5794 5793 5792 5791 5790 5789 5789 5788 5788 5788 5787 5786 5786 5786 5785 5784 5784 5783 5782 5781 5780
5809 5809 5810 5810 5808 5808 5808 5808 5807 5806 5806 5805 5805 5804 5803 5803 5803 5802 5801 5800 5799 5798 5796 5795 5794 5793 5791 5790 5789 5788 5786 5786 5785 5784 5783 5783 5783 5782 5782 5781 5781 5780 5780 5779 5778 5778 5777 5776 5775
5807 5807 5807 5807 5806 5805 5805 5805 5805 5803 5803 5803 5802 5801 5800 5799 5798 5797 5796 5795 5794 5792 5791 5790 5789 5787 5786 5784 5783 5782 5781 5780 5780 5779 5778 5778 5777 5776 5776 5775 5775 5774 5774 5773 5772 5772 5771 5770 5769
5805 5805 5804 5803 5803 5802 5802 5804 5801 5800 5800 5799 5798 5797 5796 5794 5793 5792 5791 5790 5788 5787 5786 5784 5783 5782 5781 5779 5778 5777 5775 5775 5774 5773 5772 5772 5771 5771 5770 5769 5769 5768 5768 5767 5766 5765 5764 5763 5762
5802 5801 5801 5801 5800 5799 5798 5801 5798 5797 5795 5795 5794 5793 5792 5790 5789 5787 5786 5784 5783 5781 5780 5779 5777 5776 5775 5774 5772 5771 5770 5769 5768 5767 5766 5766 5765 5765 5764 5763 5762 5762 5761 5760 5759 5758 5757 5756 5755